| time (UTC) | temp C | wind direction | speed KPH | gust KPH | rain 1hr cm | rain 24hr cm | rain mn cm | humidity % | barometer mb |
| 20260504004603 | 12 | 0 | 0.0 | 0.0 | 0.00 | 1.17 | 0.64 | 97 | 1015.8 |
| 20260504003059 | 12 | 0 | 0.0 | 0.0 | 0.00 | 1.17 | 0.64 | 96 | 1015.7 |
| 20260504001601 | 11 | 0 | 0.0 | 0.0 | 0.00 | 1.17 | 0.64 | 96 | 1015.5 |
| 20260504000101 | 11 | 0 | 0.0 | 0.0 | 0.03 | 1.17 | 0.64 | 97 | 1015.4 |
| 20260503234554 | 11 | 0 | 0.0 | 0.0 | 0.03 | 1.17 | 0.64 | 97 | 1015.1 |
| 20260503233101 | 11 | 0 | 0.0 | 0.0 | 0.03 | 1.17 | 0.64 | 97 | 1015.0 |
| 20260503231554 | 11 | 0 | 0.0 | 0.0 | 0.00 | 1.14 | 0.64 | 97 | 1014.8 |
| 20260503230055 | 11 | 0 | 0.0 | 0.0 | 0.00 | 1.12 | 0.61 | 97 | 1014.5 |
| 20260503224553 | 11 | 0 | 0.0 | 0.0 | 0.00 | 1.12 | 0.61 | 97 | 1014.1 |
| 20260503223056 | 11 | 0 | 0.0 | 0.0 | 0.00 | 1.12 | 0.61 | 97 | 1013.9 |
| 20260503221559 | 11 | 0 | 0.0 | 0.0 | 0.05 | 1.14 | 0.61 | 97 | 1013.7 |
| 20260503220104 | 11 | 0 | 0.0 | 0.0 | 0.15 | 1.12 | 0.58 | 97 | 1013.6 |
| 20260503214554 | 11 | 0 | 0.0 | 0.0 | 0.15 | 1.12 | 0.58 | 97 | 1013.3 |
| 20260503213050 | 11 | 0 | 0.0 | 0.0 | 0.20 | 1.12 | 0.58 | 97 | 1013.1 |
| 20260503211553 | 11 | 0 | 0.0 | 0.0 | 0.18 | 1.22 | 0.56 | 97 | 1012.7 |
| 20260503210058 | 11 | 0 | 0.0 | 0.0 | 0.08 | 1.09 | 0.43 | 97 | 1012.5 |
| 20260503204606 | 11 | 0 | 0.0 | 0.0 | 0.10 | 1.09 | 0.43 | 97 | 1012.4 |
| 20260503203106 | 11 | 0 | 0.0 | 0.0 | 0.05 | 1.02 | 0.36 | 96 | 1011.9 |
| 20260503201556 | 11 | 0 | 0.0 | 0.0 | 0.08 | 1.04 | 0.36 | 96 | 1012.0 |
| 20260503200053 | 11 | 0 | 0.0 | 0.0 | 0.08 | 1.02 | 0.33 | 96 | 1011.5 |
| 20260503194608 | 11 | 0 | 0.0 | 0.0 | 0.05 | 0.99 | 0.30 | 96 | 1011.6 |
| 20260503193054 | 11 | 0 | 0.0 | 0.0 | 0.05 | 0.99 | 0.30 | 96 | 1011.4 |
| 20260503191601 | 11 | 0 | 0.0 | 0.0 | 0.00 | 0.94 | 0.28 | 96 | 1011.3 |
| 20260503190059 | 11 | 0 | 0.0 | 0.0 | 0.00 | 0.94 | 0.25 | 96 | 1011.1 |
| 20260503184557 | 11 | 0 | 0.0 | 0.0 | 0.00 | 0.94 | 0.25 | 96 | 1011.0 |
| 20260503183105 | 11 | 0 | 0.0 | 0.0 | 0.00 | 0.94 | 0.25 | 96 | 1011.2 |
| 20260503181552 | 11 | 0 | 0.0 | 0.0 | 0.00 | 0.94 | 0.25 | 96 | 1011.0 |
| 20260503180107 | 11 | 0 | 0.0 | 0.0 | 0.00 | 0.94 | 0.25 | 96 | 1010.9 |
| 20260503174557 | 11 | 0 | 0.0 | 0.0 | 0.00 | 0.94 | 0.25 | 96 | 1011.2 |
| 20260503173142 | 11 | 0 | 0.0 | 0.0 | 0.00 | 0.94 | 0.25 | 96 | 1011.1 |
| 20260503171553 | 11 | 0 | 0.0 | 0.0 | 0.00 | 0.94 | 0.25 | 96 | 1011.3 |
| 20260503130104 | 11 | 0 | 0.0 | 0.0 | 0.00 | 0.64 | 0.64 | 91 | 1012.5 |
| 20260503100107 | 10 | 0 | 0.0 | 0.0 | 0.00 | 0.64 | 0.64 | 95 | 1012.7 |
| 20260503081558 | 11 | 0 | 0.0 | 0.0 | 0.00 | 0.51 | 0.51 | 92 | 1011.5 |
| 20260503071554 | 11 | 0 | 0.0 | 0.0 | 0.00 | 0.53 | 0.48 | 94 | 1011.0 |
| 20260503054557 | 11 | 0 | 0.0 | 0.0 | 0.13 | 0.51 | 0.43 | 95 | 1011.0 |
| 20260503053052 | 10 | 0 | 0.0 | 0.0 | 0.13 | 0.51 | 0.43 | 95 | 1011.0 |
| 20260503051556 | 10 | 0 | 0.0 | 0.0 | 0.08 | 0.61 | 0.36 | 93 | 1011.4 |
| 20260503050053 | 11 | 0 | 0.0 | 0.0 | 0.03 | 0.56 | 0.33 | 92 | 1011.3 |
| 20260503044557 | 11 | 0 | 0.0 | 0.0 | 0.00 | 0.53 | 0.28 | 89 | 1011.1 |
| 20260503043108 | 12 | 0 | 0.0 | 0.0 | 0.00 | 0.53 | 0.28 | 86 | 1010.8 |
| 20260503041558 | 12 | 0 | 0.0 | 0.0 | 0.08 | 0.66 | 0.28 | 88 | 1011.0 |
| 20260503040059 | 12 | 0 | 0.0 | 0.0 | 0.08 | 0.66 | 0.28 | 90 | 1011.1 |
| 20260503034558 | 12 | 0 | 0.0 | 0.0 | 0.05 | 0.64 | 0.28 | 93 | 1010.9 |
| 20260503033053 | 11 | 0 | 0.0 | 0.0 | 0.05 | 0.64 | 0.28 | 95 | 1011.0 |
| 20260503031608 | 11 | 0 | 0.0 | 0.0 | 0.00 | 0.64 | 0.20 | 92 | 1011.2 |
| 20260503024557 | 11 | 0 | 0.0 | 0.0 | 0.03 | 0.64 | 0.20 | 92 | 1011.3 |
| 20260503023056 | 11 | 0 | 0.0 | 0.0 | 0.03 | 0.64 | 0.20 | 91 | 1011.5 |
| 20260503021555 | 11 | 0 | 0.0 | 0.0 | 0.05 | 0.64 | 0.20 | 93 | 1011.4 |
| 20260503020059 | 11 | 0 | 0.0 | 0.0 | 0.05 | 0.64 | 0.20 | 91 | 1011.5 |
| 20260503014558 | 11 | 0 | 0.0 | 0.0 | 0.00 | 0.58 | 0.18 | 91 | 1011.4 |
| 20260503013056 | 11 | 0 | 0.0 | 0.0 | 0.00 | 0.58 | 0.18 | 91 | 1011.1 |
| 20260503011605 | 11 | 0 | 0.0 | 0.0 | 0.00 | 0.56 | 0.15 | 90 | 1011.0 |
| 20260503010052 | 11 | 0 | 0.0 | 0.0 | 0.00 | 0.56 | 0.15 | 88 | 1011.0 |